Regional Weather Roundup
Issued by NWS

Home | Current Version | Previous Version | Text Only | Print | Product List | Glossary On
Versions: 1 2 3 4 5 6 7 8 9 10 11 12 13 14 15 16 17 18 19 20 21 22 23 24 25 26 27 28 29 30 31 32 33 34 35 36 37 38 39 40 41 42 43 44 45 46 47 48 49 50
000
ASUS45 KSLC 300510
RWRUT

UTAH REGIONAL WEATHER ROUNDUP
NATIONAL WEATHER SERVICE SALT LAKE CITY UT
1000 PM MST THU JAN 29 2015

UTZ001>011-023>025-300600-

NORTHERN UTAH

CITY           SKY/WX    TMP DP  RH WIND       PRES   REMARKS
BRIGHAM CITY   CLOUDY    39  33  79 CALM      30.25S
HILL AFB       CLOUDY    38  36  93 S9        30.26R WCI  31
LOGAN          CLOUDY    33  32  96 CALM      30.27S
OGDEN          CLOUDY    39  34  82 S8        30.26R WCI  33
PROVO AIRPORT  CLOUDY    36  32  87 SW3       30.27S
SALT LAKE CITY CLOUDY    39  34  82 CALM      30.27S
VERNAL         CLOUDY    36  29  75 SW3       30.30R
WENDOVER       CLOUDY    39  32  75 CALM      30.26F
HEBER CITY     CLOUDY    36  30  80 CALM      30.27R
WEST JORDAN    CLOUDY    37  36  93 CALM      30.27S

$$

UTZ012>022-026-027-300600-

SOUTHERN/CENTRAL UTAH

CITY           SKY/WX    TMP DP  RH WIND       PRES   REMARKS
BLANDING       CLOUDY    46  32  58 E5        30.35S
BRYCE CANYON   CLOUDY    35  30  82 SE5       30.27S WCI  31
CEDAR CITY     CLOUDY    38  33  82 CALM      30.20F
DELTA          CLOUDY    39  38  97 CALM      30.25F
HANKSVILLE     CLOUDY    45  32  61 CALM      30.30R
MILFORD        CLOUDY    40  36  86 N5        30.22F
MOAB/CYNLANDS  CLOUDY    44  35  70 NW7       30.25S
PRICE          CLOUDY    39  36  89 CALM      30.30S
ST GEORGE      CLOUDY    55  37  50 N3        30.15S
KANAB          CLOUDY    46  34  61 E9        30.24S

$$

REGIONAL REPORTS     COLORADO/ARIZONA

CITY           SKY/WX    TMP DP  RH WIND       PRES   REMARKS
CRAIG, CO      CLOUDY    29  27  92 CALM      30.30F
GRAND JUNCTION CLOUDY    43  31  62 SE9       30.28S
RIFLE          CLOUDY    38  27  64 CALM      30.30R
MONTROSE       CLOUDY    40  28  62 SE3       30.32S
CORTEZ         CLOUDY    44  34  67 NE3       30.32R
PAGE, AZ       NOT AVBL
GRAND CANYON   LGT RAIN  38  36  92 E12       30.21S FOG     WCI  30
KINGMAN        LGT RAIN  50  47  89 E8        30.10S
FLAGSTAFF      LGT RAIN  38  37  97 E6        30.20S FOG     WCI  33

$$

REGIONAL REPORTS    NEVADA/IDAHO/WYOMING

CITY           SKY/WX    TMP DP  RH WIND       PRES   REMARKS
LAS VEGAS, NV  CLOUDY    59  40  49 SW7       30.03S
ELY            CLOUDY    35  34  96 CALM      30.23F FOG
ELKO           CLOUDY    39  33  79 E6        30.21F WCI  35
POCATELLO, ID  CLEAR     31  29  92 CALM      30.29S
BURLEY         MOCLDY    36  30  79 E8        30.27S WCI  30
EVANSTON, WY   CLOUDY    31  27  85 NE3       30.29S
ROCK SPRINGS   CLOUDY    32  27  81 E6        30.28F WCI  26
KEMMERER       CLOUDY    28  25  86 N10       30.30S WCI  19

$$



USA.gov is the U.S. government's official web portal to all federal, state and local government web resources and services.